TimeEDT,TemperatureF,Dew PointF,Humidity,Sea Level PressureIn,VisibilityMPH,Wind Direction,Wind SpeedMPH,Gust SpeedMPH,PrecipitationIn,Events,Conditions,WindDirDegrees,DateUTC
12:17 AM,73.4,71.6,94,30.05,10.0,WSW,3.5,-,N/A,,Mostly Cloudy,240,2013-07-09 04:17:00
12:52 AM,73.0,71.1,93,30.05,10.0,WSW,3.5,-,N/A,,Overcast,240,2013-07-09 04:52:00
1:11 AM,73.4,71.6,94,30.04,10.0,WSW,3.5,-,N/A,,Mostly Cloudy,250,2013-07-09 05:11:00
1:23 AM,71.6,71.6,100,30.04,9.0,WSW,3.5,-,N/A,,Mostly Cloudy,240,2013-07-09 05:23:00
1:50 AM,71.6,69.8,94,30.04,7.0,SW,4.6,-,N/A,,Scattered Clouds,230,2013-07-09 05:50:00
1:52 AM,72.0,70.0,93,30.04,7.0,WSW,3.5,-,N/A,,Scattered Clouds,240,2013-07-09 05:52:00
2:16 AM,73.4,71.6,94,30.04,8.0,SW,4.6,-,N/A,,Mostly Cloudy,230,2013-07-09 06:16:00
2:52 AM,73.9,72.0,93,30.05,10.0,Calm,Calm,-,N/A,,Overcast,0,2013-07-09 06:52:00
3:42 AM,71.6,69.8,94,30.04,4.0,NW,4.6,-,N/A,,Overcast,320,2013-07-09 07:42:00
3:52 AM,71.1,70.0,96,30.05,3.0,NW,3.5,-,N/A,,Overcast,320,2013-07-09 07:52:00
4:09 AM,69.8,69.8,100,30.04,2.5,Calm,Calm,-,N/A,,Overcast,0,2013-07-09 08:09:00
4:20 AM,71.6,69.8,94,30.04,3.0,Calm,Calm,-,N/A,,Overcast,0,2013-07-09 08:20:00
4:52 AM,71.1,70.0,96,30.05,5.0,Calm,Calm,-,N/A,,Overcast,0,2013-07-09 08:52:00
5:52 AM,71.1,70.0,96,30.07,4.0,NNW,3.5,-,N/A,,Overcast,330,2013-07-09 09:52:00
6:04 AM,71.6,69.8,94,30.06,1.8,Variable,3.5,-,N/A,,Overcast,0,2013-07-09 10:04:00
6:52 AM,70.0,70.0,100,30.09,1.2,Calm,Calm,-,N/A,,Overcast,0,2013-07-09 10:52:00
7:29 AM,71.6,69.8,94,30.08,2.0,Calm,Calm,-,N/A,,Overcast,0,2013-07-09 11:29:00
7:52 AM,72.0,71.1,97,30.09,3.0,Calm,Calm,-,N/A,,Overcast,0,2013-07-09 11:52:00
8:52 AM,73.0,71.1,93,30.09,8.0,Calm,Calm,-,N/A,,Overcast,0,2013-07-09 12:52:00
9:05 AM,73.4,71.6,94,30.09,9.0,Calm,Calm,-,N/A,,Overcast,0,2013-07-09 13:05:00
9:52 AM,73.9,71.1,91,30.09,9.0,NNW,3.5,-,N/A,,Overcast,330,2013-07-09 13:52:00
10:52 AM,73.9,71.1,91,30.10,6.0,Calm,Calm,-,N/A,,Overcast,0,2013-07-09 14:52:00
11:52 AM,73.9,71.1,91,30.10,6.0,Calm,Calm,-,N/A,,Overcast,0,2013-07-09 15:52:00
12:52 PM,72.0,69.1,91,30.10,5.0,NNE,4.6,-,N/A,,Overcast,30,2013-07-09 16:52:00
1:52 PM,72.0,68.0,87,30.10,7.0,ENE,4.6,-,N/A,,Overcast,60,2013-07-09 17:52:00
2:52 PM,72.0,68.0,87,30.10,9.0,Variable,3.5,-,N/A,,Overcast,0,2013-07-09 18:52:00
3:43 PM,71.6,69.8,94,30.09,9.0,Calm,Calm,-,N/A,,Overcast,0,2013-07-09 19:43:00
3:52 PM,72.0,69.1,91,30.10,9.0,SE,4.6,-,N/A,,Overcast,130,2013-07-09 19:52:00
4:42 PM,71.6,69.8,94,30.08,2.5,ESE,3.5,-,0.04,Rain,Rain,120,2013-07-09 20:42:00
4:49 PM,71.6,68.0,88,30.08,4.0,Calm,Calm,-,0.04,Rain,Light Rain,0,2013-07-09 20:49:00
4:52 PM,71.1,68.0,90,30.09,5.0,ENE,3.5,-,0.04,Rain,Light Rain,70,2013-07-09 20:52:00
4:56 PM,71.6,68.0,88,30.08,6.0,Calm,Calm,-,0.00,,Overcast,0,2013-07-09 20:56:00
5:32 PM,71.6,69.8,94,30.07,5.0,NE,3.5,-,0.00,,Overcast,40,2013-07-09 21:32:00
5:52 PM,72.0,69.1,91,30.08,5.0,Calm,Calm,-,0.00,,Overcast,0,2013-07-09 21:52:00
6:27 PM,71.6,69.8,94,30.07,5.0,ENE,3.5,-,N/A,,Overcast,70,2013-07-09 22:27:00
6:52 PM,70.0,68.0,93,30.08,6.0,Calm,Calm,-,N/A,,Overcast,0,2013-07-09 22:52:00
7:06 PM,71.6,68.0,88,30.08,7.0,Calm,Calm,-,N/A,,Overcast,0,2013-07-09 23:06:00
7:52 PM,71.1,68.0,90,30.08,7.0,ENE,3.5,-,N/A,,Overcast,70,2013-07-09 23:52:00
8:52 PM,70.0,66.9,90,30.09,9.0,East,3.5,-,N/A,,Overcast,90,2013-07-10 00:52:00
9:04 PM,69.8,66.2,88,30.09,9.0,ENE,3.5,-,N/A,,Overcast,70,2013-07-10 01:04:00
9:42 PM,69.8,66.2,88,30.10,7.0,Calm,Calm,-,N/A,,Overcast,0,2013-07-10 01:42:00
9:52 PM,69.1,66.9,93,30.11,6.0,Calm,Calm,-,N/A,,Overcast,0,2013-07-10 01:52:00
10:33 PM,69.8,66.2,88,30.09,5.0,East,3.5,-,N/A,,Overcast,100,2013-07-10 02:33:00
10:52 PM,70.0,66.9,90,30.09,5.0,East,4.6,-,N/A,,Overcast,90,2013-07-10 02:52:00
11:52 PM,69.1,66.9,93,30.09,5.0,ESE,3.5,-,N/A,,Overcast,120,2013-07-10 03:52:00